[[{"header":{"parameterUnit":"m.s-1","parameterCategory":1,"la1":30.2991,"la2":30.254,"lo1":-89.0895,"lo2":-89.0444,"dy":0.0017,"dx":0.0017,"nx":28,"ny":28,"refTime":"2024-08-18T03:00:00:Z","depth":0,"parameterNumber":2,"parameterNumberName":"U-component_of_WINDS"},"data":[0,0,0,0,0,0,0,0,0,0,0,0,0,0,0,0,0,0,0,0,0,0,0,0,0,0,0,0,0,0,0,0,0,0,0,0,0,0,0,0,0,0,0,0,0,0,0,0,0,0,0,0,0,0,0,0,0,0,-2.4486,-2.4488,0,-2.4632,-2.4633,-2.4635,-2.4632,-2.463,-2.4628,-2.4626,-2.4776,-2.4781,-2.4787,0,0,0,0,0,0,0,0,0,0,0,0,0,-2.4202,-2.4207,-2.4486,-2.4488,-2.449,-2.4631,-2.4633,-2.4635,-2.4632,-2.463,-2.4627,-2.4625,-2.4774,-2.4781,-2.4788,0,0,0,0,0,0,0,0,0,0,0,0,0,-2.4334,-2.4209,-2.4486,-2.4505,-2.4508,-2.4631,-2.4633,-2.4636,-2.4633,-2.463,-2.4627,-2.4624,-2.4771,-2.478,-2.4789,-2.4902,0,0,-2.4815,-2.4819,0,0,0,0,0,0,0,0,-2.4327,-2.4345,-2.45,-2.4504,-2.4508,-2.461,-2.4588,-2.4725,-2.4633,-2.4585,-2.4626,-2.4622,-2.4723,-2.4736,-2.477,-2.4909,-2.4915,-2.4816,-2.4821,-2.4825,-2.4828,0,0,0,0,0,0,0,-2.4318,-2.4338,-2.4544,-2.4503,-2.4507,-2.4505,-2.4521,-2.4614,-2.4669,-2.4589,-2.4589,-2.4607,-2.4725,-2.4761,-2.4773,-2.4918,-2.4816,-2.4824,-2.4829,-2.4832,-2.5152,-2.5155,0,0,0,0,0,0,-2.4305,-2.4331,-2.4539,-2.4548,-2.4408,-2.4513,-2.453,-2.4581,-2.4668,-2.4679,-2.4609,-2.4606,-2.4748,-2.4763,-2.4778,-2.4914,-2.4825,-2.4833,-2.4838,-2.5149,-2.5153,-2.5156,0,0,0,0,0,0,-2.4299,-2.4323,-2.4533,-2.4439,-2.4466,-2.4521,-2.4577,-2.4585,-2.4622,-2.4683,-2.4693,-2.4637,-2.4746,-2.4766,-2.487,-2.492,-2.4837,-2.4845,-2.5145,-2.515,-2.5155,-2.5189,0,0,0,0,0,0,-2.429,-2.4321,-2.4366,-2.4441,-2.4471,-2.4624,-2.4581,-2.459,-2.4637,-2.4634,-2.4711,-2.4721,-2.4745,-2.4857,-2.4879,-2.493,-2.4852,-2.5141,-2.5147,-2.5153,-2.5184,-2.5194,-2.5203,0,0,0,0,0,-2.428,-2.4371,-2.4368,-2.4393,-2.4528,-2.4627,-2.4644,-2.467,-2.4641,-2.4685,-2.4724,-2.4719,-2.491,-2.4868,-2.4892,-2.4947,-2.5138,-2.5146,-2.5153,-2.5179,-2.5192,-2.5203,0,0,0,0,0,0,-2.4303,-2.4381,-2.4379,-2.4497,-2.4555,-2.4626,-2.4684,-2.4683,-2.4751,-2.4746,-2.4774,-2.4792,-2.4895,-2.4931,-2.4883,-2.5059,-2.502,-2.5033,-2.5032,-2.5045,-2.5055,-2.5044,-2.4859,0,0,0,0,0,-2.4321,-2.4395,-2.4459,-2.4557,-2.4586,-2.4629,-2.4673,-2.4687,-2.4749,-2.4774,-2.482,-2.488,-2.4952,-2.5,-2.5072,-2.5188,-2.5203,-2.5237,-2.5247,-2.5255,-2.5266,-2.5326,-2.5341,-2.518,-2.518,-2.518,0,0,-2.4361,-2.4412,-2.4458,-2.4562,-2.4609,-2.4683,-2.465,-2.4732,-2.4787,-2.4786,-2.4887,-2.4922,-2.499,-2.51,-2.5151,-2.5133,-2.5312,-2.5264,-2.527,-2.5277,-2.5335,-2.535,-2.5364,-2.5185,-2.5185,-2.5184,0,0,-2.447,-2.4518,-2.4602,-2.4648,-2.4719,-2.4746,-2.4766,-2.4836,-2.4859,-2.496,-2.496,-2.5025,-2.5151,-2.5199,-2.5239,-2.536,-2.5357,-2.5382,-2.5435,-2.5493,-2.5506,-2.5517,-2.5559,-2.5573,-2.5392,-2.5393,-2.5393,0,-2.4511,-2.4624,-2.4646,-2.4727,-2.4771,-2.4771,-2.4856,-2.49,-2.499,-2.502,-2.4999,-2.5154,-2.52,-2.5319,-2.5348,-2.5381,-2.5403,-2.5375,-2.5502,-2.5514,-2.5525,-2.5565,-2.558,-2.5395,-2.5395,-2.5395,-2.5394,0,-2.4669,-2.4746,-2.4806,-2.4891,-2.4942,-2.5024,-2.5058,-2.5106,-2.5114,-2.5143,-2.5243,-2.5297,-2.5378,-2.5406,-2.5416,-2.5526,-2.5512,-2.5496,-2.5459,-2.5542,-2.558,-2.5596,-2.5399,-2.5398,-2.5397,-2.5396,0,0,-2.4802,-2.4893,-2.4915,-2.4951,-2.5026,-2.5086,-2.5166,-2.5243,-2.5283,-2.5343,-2.5411,-2.5514,-2.5498,-2.5544,-2.5558,-2.5609,-2.5698,-2.5587,-2.5588,-2.5605,-2.582,-2.5831,-2.5849,-2.5696,-2.5699,-2.5701,-2.5813,0,-2.4919,-2.5062,-2.5082,-2.5208,-2.5278,-2.5276,-2.5345,-2.5397,-2.5425,-2.5487,-2.5518,-2.559,-2.5565,-2.5592,-2.5642,-2.5677,-2.5742,-2.5669,-2.5757,-2.576,-2.5741,-2.5869,-2.5883,-2.5987,-2.5829,-2.5831,-2.5833,0,-2.5076,-2.5138,-2.5271,-2.5331,-2.5361,-2.5423,-2.5493,-2.5553,-2.561,-2.5626,-2.5675,-2.5681,-2.5761,-2.5718,-2.5828,-2.5778,-2.5815,-2.5836,-2.5841,-2.5851,-2.5803,-2.5882,-2.6021,-2.6036,-2.5857,-2.5855,-2.5853,0,-2.5158,-2.5275,-2.5368,-2.5399,-2.5473,-2.5516,-2.5548,-2.5602,-2.5645,-2.5706,-2.5733,-2.5803,-2.5841,-2.5893,-2.5916,-2.5883,-2.6024,-2.5984,-2.6039,-2.6038,-2.6071,-2.6069,-2.6217,-2.6094,-2.6093,-2.6093,-2.6093,0,-2.5288,-2.5369,-2.5405,-2.5463,-2.5552,-2.5572,-2.5659,-2.569,-2.5737,-2.5799,-2.5801,-2.5859,-2.5886,-2.5947,-2.5966,-2.6053,-2.607,-2.6084,-2.6089,-2.6085,-2.6083,-2.611,-2.6104,-2.6097,-2.6096,-2.6095,-2.6095,0,-2.5396,-2.5424,-2.5525,-2.5584,-2.56,-2.5663,-2.5713,-2.5768,-2.5792,-2.587,-2.589,-2.5929,-2.6001,-2.6028,-2.6117,-2.6129,-2.6229,-2.6227,-2.6209,-2.6211,-2.6264,-2.6258,-2.6436,-2.6459,-2.632,-2.6321,-2.6322,0,-2.5478,-2.5539,-2.5603,-2.5644,-2.5677,-2.5744,-2.5786,-2.5807,-2.5851,-2.5918,-2.5964,-2.6035,-2.6093,-2.6207,-2.6243,-2.6309,-2.6309,-2.6366,-2.6319,-2.6312,-2.6309,-2.6305,-2.631,-2.6376,-2.6377,-2.6378,-2.6379,0,-2.5618,-2.5627,-2.569,-2.5755,-2.5806,-2.5859,-2.591,-2.5943,-2.597,-2.602,-2.6092,-2.6137,-2.6225,-2.6295,-2.6361,-2.6393,-2.6391,-2.6393,-2.6409,-2.6406,-2.6393,-2.64,-2.6233,-2.639,-2.6389,-2.6388,-2.6387,-2.6387,-2.5716,-2.5769,-2.582,-2.5888,-2.5928,-2.5974,-2.6027,-2.6056,-2.6117,-2.619,-2.6197,-2.6274,-2.6325,-2.6414,-2.6448,-2.6508,-2.6493,-2.6516,-2.6522,-2.6528,-2.6531,-2.6382,-2.652,-2.652,-2.652,-2.6519,-2.6519,0,-2.5856,-2.5887,-2.5949,-2.6019,-2.6071,-2.6061,-2.6116,-2.616,-2.6228,-2.6275,-2.633,-2.6411,-2.6477,-2.6516,-2.6582,-2.6622,-2.6622,-2.6638,-2.6636,-2.6643,-2.6542,-2.6521,-2.6637,-2.6637,-2.6637,-2.6637,-2.6637,-2.6637,-2.5935,-2.6023,-2.6037,-2.6143,-2.6175,-2.6249,-2.6281,-2.6323,-2.636,-2.645,-2.6504,-2.6528,-2.6571,-2.6639,-2.6698,-2.6707,-2.6731,-2.6749,-2.6757,-2.6662,-2.665,-2.6639,-2.6619,-2.6754,-2.6754,-2.6853,-2.6854,-2.6854]},{"header":{"parameterUnit":"m.s-1","parameterCategory":1,"la1":30.2991,"la2":30.254,"lo1":-89.0895,"lo2":-89.0444,"dy":0.0017,"dx":0.0017,"nx":28,"ny":28,"refTime":"2024-08-18T03:00:00:Z","depth":0,"parameterNumber":3,"parameterNumberName":"V-component_of_WINDS"},"data":[0,0,0,0,0,0,0,0,0,0,0,0,0,0,0,0,0,0,0,0,0,0,0,0,0,0,0,0,0,0,0,0,0,0,0,0,0,0,0,0,0,0,0,0,0,0,0,0,0,0,0,0,0,0,0,0,0,0,0.7758,0.7756,0,0.7602,0.7601,0.7599,0.7544,0.7545,0.7546,0.7546,0.7375,0.737,0.7364,0,0,0,0,0,0,0,0,0,0,0,0,0,0.7998,0.7994,0.7758,0.7756,0.7754,0.7603,0.76,0.7598,0.7544,0.7545,0.7546,0.7547,0.7376,0.737,0.7364,0,0,0,0,0,0,0,0,0,0,0,0,0,0.7873,0.7992,0.7758,0.7709,0.7703,0.7603,0.76,0.7598,0.7544,0.7545,0.7546,0.7547,0.7378,0.7371,0.7363,0.7297,0,0,0.7339,0.7336,0,0,0,0,0,0,0,0,0.788,0.7864,0.7718,0.7712,0.7706,0.7594,0.7622,0.7496,0.7544,0.7604,0.7546,0.7547,0.7446,0.7433,0.7401,0.7289,0.7281,0.7339,0.7334,0.7331,0.7329,0,0,0,0,0,0,0,0.7889,0.787,0.7696,0.7716,0.7708,0.7691,0.7675,0.7598,0.7521,0.7599,0.7595,0.7578,0.7443,0.7409,0.7397,0.7279,0.7339,0.7332,0.7327,0.7324,0.7105,0.7104,0,0,0,0,0,0,0.7907,0.7878,0.7701,0.7691,0.7797,0.7686,0.7668,0.7629,0.7522,0.7507,0.7577,0.7576,0.7421,0.7406,0.739,0.7306,0.7331,0.7324,0.7319,0.7106,0.7105,0.7103,0,0,0,0,0,0,0.7912,0.7892,0.7707,0.7783,0.7759,0.7681,0.7638,0.7625,0.7591,0.7506,0.7491,0.7557,0.7422,0.7401,0.7321,0.7299,0.732,0.7313,0.7107,0.7106,0.7104,0.7137,0,0,0,0,0,0,0.792,0.7894,0.787,0.7784,0.7755,0.7644,0.7636,0.7621,0.758,0.7576,0.7483,0.7468,0.7421,0.7333,0.7314,0.7289,0.7307,0.7109,0.7107,0.7105,0.7138,0.7137,0.7136,0,0,0,0,0,0.7928,0.7882,0.7869,0.7848,0.7724,0.7643,0.7626,0.7576,0.7578,0.7552,0.7497,0.7471,0.7306,0.7326,0.7303,0.7276,0.711,0.7107,0.7105,0.7138,0.7137,0.7136,0,0,0,0,0,0,0.7963,0.787,0.7854,0.778,0.7721,0.7634,0.7599,0.7576,0.7511,0.751,0.7447,0.7426,0.7351,0.7305,0.7329,0.7207,0.7206,0.7199,0.7239,0.7237,0.7237,0.7248,0.7301,0,0,0,0,0,0.7963,0.7909,0.7829,0.7771,0.7742,0.7677,0.7639,0.7606,0.754,0.7513,0.7452,0.7386,0.7319,0.7276,0.7209,0.7132,0.711,0.7102,0.7101,0.7101,0.7094,0.7051,0.7046,0.7094,0.7095,0.7095,0,0,0.796,0.7903,0.7871,0.7776,0.7726,0.7668,0.7655,0.7593,0.7549,0.7502,0.7425,0.7378,0.73,0.7221,0.7183,0.7181,0.7077,0.7097,0.7098,0.7091,0.7047,0.7043,0.7039,0.7093,0.7093,0.7093,0,0,0.7926,0.7878,0.7825,0.7777,0.7704,0.7661,0.7648,0.7566,0.7535,0.7457,0.7422,0.7366,0.7252,0.7198,0.7156,0.7106,0.7079,0.7086,0.708,0.7039,0.7035,0.7031,0.7013,0.7007,0.708,0.708,0.708,0,0.7931,0.7846,0.78,0.7742,0.7701,0.7662,0.7606,0.756,0.7466,0.7437,0.7437,0.7296,0.7239,0.7149,0.7137,0.7104,0.7086,0.7095,0.704,0.7036,0.7031,0.7013,0.7007,0.7082,0.7081,0.7081,0.7081,0,0.7856,0.7797,0.7763,0.768,0.7635,0.7578,0.7521,0.748,0.7452,0.7409,0.733,0.7263,0.7183,0.7159,0.7128,0.7064,0.7065,0.7053,0.7051,0.7029,0.7011,0.7003,0.7083,0.7083,0.7083,0.7082,0,0,0.7835,0.7732,0.7719,0.7682,0.76,0.7552,0.7494,0.7421,0.7387,0.7324,0.7272,0.7179,0.7169,0.7121,0.7084,0.7048,0.7013,0.704,0.7038,0.7037,0.6937,0.6946,0.6939,0.6996,0.6995,0.6994,0.6944,0,0.779,0.7689,0.7647,0.7563,0.7508,0.7472,0.7421,0.7363,0.7322,0.7266,0.7219,0.7154,0.7146,0.7117,0.7079,0.7026,0.6992,0.7029,0.6944,0.6942,0.6965,0.693,0.6938,0.6894,0.6937,0.6935,0.6934,0,0.7723,0.7666,0.7579,0.7506,0.7482,0.7437,0.7367,0.7316,0.725,0.7222,0.7172,0.7138,0.7073,0.7078,0.6986,0.7012,0.6975,0.6944,0.6941,0.6929,0.6936,0.6916,0.6879,0.6872,0.6923,0.6924,0.6925,0,0.7717,0.7618,0.7554,0.7523,0.7436,0.7406,0.7368,0.7303,0.7262,0.7201,0.7173,0.7103,0.7064,0.7009,0.6957,0.6966,0.687,0.687,0.6843,0.6845,0.6823,0.6825,0.6778,0.6802,0.6802,0.6802,0.6802,0,0.767,0.7618,0.7551,0.7511,0.7451,0.7403,0.7344,0.7302,0.7246,0.7195,0.7158,0.711,0.7045,0.6988,0.6947,0.6877,0.6859,0.6833,0.6823,0.6836,0.684,0.681,0.6811,0.68,0.6801,0.6801,0.6801,0,0.7652,0.7606,0.7533,0.746,0.744,0.7399,0.7334,0.7292,0.7251,0.7187,0.7169,0.7102,0.7034,0.6978,0.6887,0.6859,0.6787,0.6774,0.681,0.6805,0.6781,0.6784,0.6712,0.67,0.6733,0.6733,0.6733,0,0.7625,0.7585,0.7509,0.7475,0.7439,0.7384,0.7344,0.7295,0.7254,0.7178,0.7145,0.7076,0.7017,0.691,0.6851,0.6781,0.6767,0.6747,0.6755,0.6771,0.6766,0.6769,0.6764,0.6745,0.6745,0.6745,0.6745,0,0.7581,0.7562,0.7508,0.7447,0.7402,0.735,0.7297,0.727,0.7211,0.7166,0.71,0.7055,0.6965,0.6896,0.6821,0.6778,0.6751,0.6744,0.6734,0.6746,0.6769,0.6756,0.6808,0.6745,0.6745,0.6745,0.6745,0.6745,0.7557,0.7521,0.7463,0.7405,0.7361,0.7313,0.7272,0.7228,0.7173,0.7099,0.7072,0.7003,0.6939,0.6836,0.6793,0.6737,0.6733,0.6718,0.6714,0.6711,0.6714,0.678,0.6722,0.6722,0.6722,0.6722,0.6722,0,0.7512,0.7474,0.7422,0.7352,0.7306,0.7291,0.7231,0.7193,0.7134,0.7079,0.7024,0.6947,0.6881,0.6819,0.6749,0.6715,0.6701,0.6698,0.6699,0.669,0.672,0.6736,0.6711,0.6711,0.6711,0.6711,0.6711,0.6711,0.7483,0.7421,0.7395,0.731,0.7271,0.7207,0.7175,0.713,0.7086,0.7004,0.695,0.6912,0.6853,0.678,0.6718,0.6701,0.6676,0.6677,0.6656,0.6686,0.6687,0.6689,0.6704,0.6672,0.6672,0.663,0.663,0.6629]}]]